Hourly Data Report for December 11, 2017

All times are specified in Local Standard Time (LST). Add 1 hour to adjust for Daylight Saving Time where and when it is observed.

RED LAKE A
ONTARIO

51°04'02.000" N
93°47'35.000" W
385.90 m
6016971
YRL

Related Data

No related data is available for this station

Download Data

Hourly Data (December 2017)
Hourly Data Report for December 11, 2017
Temp Definition
°C
Dew Point Temp Definition
°C
Rel Hum Definition
%
Wind Dir Definition
10's deg

Wind Spd Definition
km/h
Visibility Definition
km
Stn Press Definition
kPa
Hmdx Definition


Wind Chill Definition


Weather Definition


TIME
00:00 Legend Double Dagger -15.2 -17.4 84 16 8 LegendMM 96.16   -21 LegendNANA
01:00 Legend Double Dagger -14.4 -16.5 84 17 5 LegendMM 96.09   -18 LegendNANA
02:00 Legend Double Dagger -13.9 -16.1 84 9 3 LegendMM 96.09   -16 LegendNANA
03:00 Legend Double Dagger -13.5 -15.7 84 9 2 LegendMM 96.09   -15 LegendNANA
04:00 Legend Double Dagger -13.2 -15.3 84 34 5 LegendMM 96.14   -17 LegendNANA
05:00 Legend Double Dagger -13.0 -14.7 87 32 8 LegendMM 96.21   -18 LegendNANA
06:00 Legend Double Dagger -11.9 -13.2 91 34 16 LegendMM 96.34   -19 LegendNANA
07:00 Legend Double Dagger -11.9 -14.6 81 35 22 LegendMM 96.50   -21 LegendNANA
08:00 Legend Double Dagger -12.5 -15.8 77 35 28 LegendMM 96.68   -22 LegendNANA
09:00 Legend Double Dagger -13.2 -16.4 77 35 23 LegendMM 96.85   -23 LegendNANA
10:00 Legend Double Dagger -13.7 -16.9 77 34 19 LegendMM 96.97   -22 LegendNANA
11:00 Legend Double Dagger -13.9 -17.4 75 33 18 LegendMM 97.09   -22 LegendNANA
12:00 Legend Double Dagger -13.8 -17.5 74 32 15 LegendMM 97.17   -21 LegendNANA
13:00 Legend Double Dagger -13.9 -17.8 73 33 14 LegendMM 97.20   -21 LegendNANA
14:00 Legend Double Dagger -14.3 -18.8 69 32 15 LegendMM 97.26   -22 LegendNANA
15:00 Legend Double Dagger -15.5 -19.9 70 33 21 LegendMM 97.34   -25 LegendNANA
16:00 Legend Double Dagger -16.7 -20.4 73 31 10 LegendMM 97.40   -23 LegendNANA
17:00 Legend Double Dagger -17.5 -20.6 77 30 13 LegendMM 97.46   -25 LegendNANA
18:00 Legend Double Dagger -18.3 -21.1 79 29 13 LegendMM 97.50   -26 LegendNANA
19:00 Legend Double Dagger -18.8 -21.3 81 30 9 LegendMM 97.53   -25 LegendNANA
20:00 Legend Double Dagger -19.1 -21.7 80 30 11 LegendMM 97.54   -27 LegendNANA
21:00 Legend Double Dagger -19.2 -21.7 81 30 9 LegendMM 97.53   -26 LegendNANA
22:00 Legend Double Dagger -19.7 -21.9 83 30 12 LegendMM 97.52   -28 LegendNANA
23:00 Legend Double Dagger -20.5 -22.6 83 30 10 LegendMM 97.50   -28 LegendNANA

Notes on Data Quality.

Legend

  • E = Estimated
  • M = Missing
  • NA = Not Available
  • ‡ = Partner data that is not subject to review by the National Climate Archives
Date modified: